Location: Unspecified
(49.2170°N, 0.0000°E)
Time: 18:01:57
(UTC+00:00)

Transit 2A - Pass Details

Date: 17 June 2019
Orbit: 594 x 964 km, 66.7° (Epoch: 21 July)

Event Time Altitude Azimuth Distance (km) Brightness Sun altitude
Exits shadow 01:35:42 20° 197° (SSW) 2,046 7.5 -14.4°
Maximum altitude 01:40:09 66° 120° (ESE) 1,043 6.6 -14.1°
Drops below altitude 10° 01:46:23 10° 40° (NE) 2,659 10.1 -13.7°
Sets 01:48:53 0° 38° (NE) 3,573 11.2 -13.5°
